Content
SEND FEEDBACK

Daily
Averages
Monthly
Summary
Belgium

KOKSIJDE, BELGIUM


Home > Europe > Belgium
Elevation: 30 feet     Latitude: 51 05N     Longitude: 002 39E

WEATHER
 
SELECT A DAY
Number of Records: 171,200;   Date Range: 7/1/96 - 8/27/14
 
SHARE

PRINT THIS DATA

[ ← Previous Day ]
WEATHER ALMANAC - JANUARY 31, 2013
[ Next Day → ]
[ °C ]   °F
Weather ElementAverageHighLow
Temperature47.7 °F51.8 °F (1:25 pm)42.8 °F (8:25 am)
Dewpoint40.9 °F44.6 °F (10:25 am)38 °F (1:00 am)
Humidity76.4 %93 % (10:25 am)59 % (4:00 pm)
Barometer29.94 in30.08 in (1:00 am)29.86 in (10:55 am)
Wind Speed21.3 mph29.1 mph (1:00 pm)
Wind Gust39.1 mph (1:55 pm)
Weather ElementAverage
Visibility6 mi
Wind DirectionWSW (236.9 °)

Weather ElementTotal
Precipitation---
Heating Degree Days17.7 (Base 65)
Averaged from 58 records on January 31, 2013
WEATHER CONDITIONS BREAKOUT
WIND DIRECTION BREAKOUT
WEATHER BY HOUR - JANUARY 31, 2013
[ °C ]   °F
Local TimeTemperatureDewpointHumidityBarometerVisibilityWind DirectionWind SpeedGust SpeedPrecipitationEventsConditions
12:55 AM48.2 °F39.2 °F71 %30.06 in6.2 miWest (260°)21.9 mphMostly Cloudy
1:00 AM48.0 °F38.0 °F60 %30.08 in7.0 miWSW (250°)22.4 mphMostly Cloudy
1:25 AM46.4 °F39.2 °F76 %30.06 in6.2 miWSW (250°)19.6 mphScattered Clouds
1:55 AM46.4 °F39.2 °F76 %30.06 in6.2 miWSW (250°)18.4 mphScattered Clouds
2:25 AM46.4 °F39.2 °F76 %30.06 in6.2 miWest (260°)24.2 mphMostly Cloudy
2:55 AM46.4 °F39.2 °F76 %30.06 in6.2 miWSW (250°)21.9 mphScattered Clouds
3:25 AM48.2 °F39.2 °F71 %30.06 in6.2 miWSW (250°)18.4 mphMostly Cloudy
3:55 AM46.4 °F39.2 °F76 %30.06 in6.2 miWSW (250°)16.1 mphMostly Cloudy
4:00 AM47.0 °F40.0 °F69 %30.08 in7.0 miWSW (250°)17.9 mphScattered Clouds
4:25 AM46.4 °F41.0 °F81 %30.04 in6.2 miWSW (240°)13.8 mphMostly Cloudy
4:55 AM44.6 °F41.0 °F87 %30.01 in6.2 miSW (220°)10.4 mphMostly Cloudy
5:25 AM44.6 °F41.0 °F87 %30.01 in6.2 miSSW (210°)10.4 mphMostly Cloudy
5:55 AM44.6 °F41.0 °F87 %30.01 in6.2 miSSW (210°)15.0 mphMostly Cloudy
6:25 AM44.6 °F41.0 °F87 %29.98 in6.2 miSSW (200°)11.5 mphMostly Cloudy
6:55 AM44.6 °F41.0 °F87 %29.95 in6.2 miSouth (190°)13.8 mphMostly Cloudy
7:00 AM45.0 °F42.0 °F83 %29.98 in7.0 miSouth (190°)11.2 mphScattered Clouds
7:25 AM44.6 °F41.0 °F87 %29.95 in6.2 miSouth (190°)17.3 mphMostly Cloudy
7:55 AM44.6 °F41.0 °F87 %29.92 in6.2 miSouth (190°)18.4 mphMostly Cloudy
8:25 AM42.8 °F39.2 °F87 %29.92 in6.2 miSouth (180°)17.3 mphMostly Cloudy
8:55 AM44.6 °F39.2 °F81 %29.92 in6.2 miSSW (210°)17.3 mphMostly Cloudy
9:25 AM46.4 °F41.0 °F81 %29.89 in6.2 miSW (220°)21.9 mphRainLight Rain
9:37 AM46.4 °F41.0 °F81 %29.89 in6.2 miSW (220°)23.0 mphRainLight Rain
9:55 AM46.4 °F41.0 °F81 %29.89 in5.0 miSW (220°)23.0 mphRainLight Rain
10:00 AM46.0 °F41.0 °F78 %29.90 in5.0 miSW (220°)22.4 mphRainLight Rain
10:15 AM46.4 °F42.8 °F87 %29.89 in2.5 miSW (220°)25.3 mph36.8 mphRainRain
10:16 AM46.4 °F42.8 °F87 %29.89 in1.9 miSW (220°)27.6 mphRainRain
10:25 AM46.4 °F44.6 °F93 %29.89 inSW (220°)27.6 mphRainLight Rain
10:30 AM46.4 °F44.6 °F93 %29.89 inSW (220°)21.9 mphRainLight Rain
10:55 AM46.4 °F44.6 °F93 %29.86 in3.1 miSW (230°)27.6 mphMostly Cloudy
11:25 AM48.2 °F44.6 °F87 %29.86 in6.2 miSW (230°)24.2 mphScattered Clouds
11:54 AM50.0 °F42.8 °F76 %29.86 in6.2 miWSW (240°)28.8 mphScattered Clouds
11:55 AM50.0 °F42.8 °F76 %29.86 in6.2 miWSW (240°)28.8 mphScattered Clouds
12:25 PM50.0 °F42.8 °F76 %29.86 in6.2 miWSW (250°)28.8 mphScattered Clouds
12:55 PM50.0 °F44.6 °F82 %29.86 in6.2 miWSW (250°)26.5 mphScattered Clouds
1:00 PM51.0 °F44.0 °F70 %29.88 in8.0 miWSW (250°)29.1 mphPartly Cloudy
1:25 PM51.8 °F42.8 °F71 %29.86 in6.2 miWest (260°)28.8 mphMostly Cloudy
1:55 PM51.8 °F41.0 °F67 %29.86 in6.2 miWest (260°)25.3 mph39.1 mphScattered Clouds
2:25 PM51.8 °F42.8 °F71 %29.86 in5.6 miWSW (250°)27.6 mph39.1 mphScattered Clouds
2:55 PM51.8 °F41.0 °F67 %29.86 in5.6 miWSW (250°)28.8 mphScattered Clouds
3:25 PM51.8 °F41.0 °F67 %29.86 in5.6 miWSW (250°)25.3 mphScattered Clouds
3:55 PM51.8 °F41.0 °F67 %29.89 in5.6 miWest (260°)24.2 mphPartly Cloudy
4:00 PM51.0 °F41.0 °F59 %29.89 in6.0 miWSW (250°)24.6 mphScattered Clouds
4:25 PM50.0 °F39.2 °F66 %29.89 in6.2 miWest (260°)25.3 mph36.8 mphPartly Cloudy
5:25 PM50.0 °F39.2 °F66 %29.89 in6.2 miWest (260°)26.5 mph38.0 mphScattered Clouds
5:55 PM48.2 °F41.0 °F76 %29.92 in5.6 miWSW (250°)20.7 mphScattered Clouds
6:25 PM48.2 °F41.0 °F76 %29.92 in6.2 miWSW (250°)20.7 mphScattered Clouds
6:55 PM48.2 °F39.2 °F71 %29.92 in6.2 miWSW (250°)17.3 mphMostly Cloudy
7:00 PM48.0 °F40.0 °F65 %29.94 in6.0 miWSW (250°)17.9 mphScattered Clouds
7:25 PM48.2 °F39.2 °F71 %29.92 in6.2 miWSW (250°)18.4 mphMostly Cloudy
7:55 PM48.2 °F39.2 °F71 %29.95 in6.2 miWSW (250°)18.4 mphMostly Cloudy
8:25 PM48.2 °F39.2 °F71 %29.92 in6.2 miWSW (250°)21.9 mphMostly Cloudy
8:55 PM48.2 °F39.2 °F71 %29.95 in6.2 miWSW (250°)23.0 mphMostly Cloudy
9:25 PM48.2 °F39.2 °F71 %29.95 in6.2 miWSW (250°)20.7 mphMostly Cloudy
9:55 PM48.2 °F39.2 °F71 %29.95 in6.2 miWSW (250°)19.6 mphMostly Cloudy
10:00 PM48.0 °F39.0 °F61 %29.95 in7.0 miWSW (250°)20.1 mphScattered Clouds
10:25 PM48.2 °F41.0 °F76 %29.95 in6.2 miWSW (240°)19.6 mphMostly Cloudy
10:55 PM48.2 °F41.0 °F76 %29.95 in6.2 miWSW (250°)17.3 mphMostly Cloudy
11:25 PM48.2 °F39.2 °F71 %29.95 in6.2 miWSW (250°)18.4 mphMostly Cloudy
Hourly data recorded from EBFN, located miles away from Koksijde, Belgium







STORIES FROM OUR PARTNERS